CZ-6A DEB, 54389

Orbit data source: Space-Track

CZ-6A DEB, 54389 is space debris in SSO originally from a launch on Fri, 11 Nov 2022 UTC launched from the Taiyaun Space Center, China (TSC). Debris objects in space refer to the collection of defunct objects orbiting the Earth. Examples of debris include non-operational satellites, rocket bodies, and fragments generated from explosions, collisions, or faulty payload assembly.

Loading next visibility...
Identifier
54389, 2022-151DM
Orbit
SSO
Country
Flag of CNCN / PRC
Related business
Manufacturer
SAST
Mission
Spacecraft
Bus & Motor
Unknown
Mass
Unknown
Launch date (UTC)
2022-11-11 (4 years ago)
Launch vehicle
Unknown
Launch site
Taiyaun Space Center, China (TSC)
Object type
Payload
Rocket body
Debris
Shape & HBR
Unknown shape, 0.2 m
Radar Cross Section
Medium (>0.1 m² and <1 m²)

Expand to show TLE details & history
Last TLE update: 10 hours ago

TLE from 10 hours ago
0 CZ-6A DEB
1 54389U 22151DM  26235.87780324  .00000390  00000-0  30514-3 0  9995
2 54389  98.9257 203.1745 0127052 259.2322  99.4515 13.94232154191700
Epoch: 2026-08-23T21:04Z
TLE epoch observation values (Epoch: 2026-08-23T21:04:02.199Z)
Latitude
-0.00011°
Longitude
-85.00219°
Altitude
933.068 km
Speed
7.377 km/s
True Right ascension
13h 32m 41s
True Declination
0° 00' 00"
Sunlit
Object was in daylight at epoch
Visualization orbit readout
Latitude
Unknown
Longitude
Unknown
Altitude
Unknown
Speed
Unknown
Apparent Right ascension
Unknown
Apparent Declination
Unknown
Sunlit
N/A
Visualization observer readout
Local Sidereal Time
22:17:35
Azimuth
Unknown
Elevation
Unknown
Doppler factor
Unknown
Orbital elements
Apogee altitude
1,003.65 km
Perigee altitude
818.429 km
Semi-major axis
7,289.177 km
Eccentricity
0.01271
Inclination
98.9257°
RAAN
203.1745°
Arg. of periapsis
259.2322°
True anomaly
100.88376°
Mean anomaly
99.4515°
Eccentric anomaly
100.16802°
Mean motion
3.48759 °/min
Orbital period
103.22 mins
BSTAR
0.00030514
Loading maneuver chart data...
Computing Atmospheric mass density...
Loading historical data...
Loading historical data...
Loading historical data...
Loading historical data...
Loading historical data...
Loading historical data...
Loading historical data...

Documentation

Showing up to 5 results
|